Starlink 6144

operational
NORAD ID: 56894 Int'l Des: 2023-083 Owner: SPXS Country: US Constellation: starlink
LEOCIRCULAR

About Starlink 6144

Description loading...

Live Position

Loading 3D Globe...

Upcoming Passes

Altitude History

Altitude vs Time

uPlot chart will show altitude changes over time

Two-Line Element Set

1 56894U 23083U 25300.73942999 -.00001496 00000-0 -95705-4 0 9992
2 56894 43.0038 83.9817 0001460 271.7126 88.3549 15.02516101131795
Epoch: Oct 27, 2025 • Age: 26 hours

Current Status

Altitude 559.7 km
Velocity 7.59 km/s
Sub-Earth Point 24.72°N, 107.33°W
Launch Date Jun 12, 2023
Age 2.3 years
Type internet

Technical Details

Classification Payload
Mass 305.00 kg
Dry Mass 290.00 kg
Total Mass 305.00 kg
Length 0.20 m
Diameter 2.80 m
Span 9.00 m
Shape Box + pan
Manufacturer SPXS
Bus Type Starlink
Phase Status In Orbit
Owner/State SPXS/US

Large Constellations

Loading constellations...